Date,TemperatureHighF,TemperatureAvgF,TemperatureLowF,DewpointHighF,DewpointAvgF,DewpointLowF,HumidityHigh,HumidityAvg,HumidityLow,PressureMaxIn,PressureMinIn,WindSpeedMaxMPH,WindSpeedAvgMPH,GustSpeedMaxMPH,PrecipitationSumIn
2013-3-1,64.8,54.5,48.2,40.5,36.9,33.2,61,52,38,29.98,29.87,9,1,9,0.00
2013-3-2,59.4,47.7,38.7,37.1,32.4,27.7,78,57,36,30.01,29.90,12,1,12,0.00
2013-3-3,49.0,41.9,33.3,31.0,28.5,24.3,77,60,46,30.12,29.96,9,1,9,0.00
2013-3-4,66.4,46.7,31.3,39.3,30.8,23.9,77,57,28,30.21,30.10,7,1,7,0.00
2013-3-5,79.6,60.0,39.2,56.3,44.8,33.7,82,61,29,30.17,29.87,12,2,12,0.00
2013-3-6,64.1,53.9,44.3,59.1,36.5,28.9,86,54,30,30.11,29.84,10,2,10,0.03
2013-3-7,63.0,49.4,37.4,45.2,37.1,28.5,77,63,47,30.22,30.11,8,1,8,0.00
2013-3-8,68.6,51.8,38.9,50.7,41.6,33.6,87,70,41,30.22,30.15,9,0,9,0.00
2013-3-9,68.8,54.3,40.3,50.2,44.0,35.8,88,70,47,30.26,30.16,10,1,10,0.00
2013-3-10,75.8,61.6,47.2,60.8,51.6,42.3,90,71,51,30.20,30.13,14,2,14,0.00
2013-3-11,77.6,64.8,51.5,60.1,55.0,47.0,89,72,53,30.13,29.89,14,3,14,0.00
2013-3-12,71.3,65.3,53.5,66.9,58.2,45.0,90,78,55,30.00,29.82,12,2,12,0.04
2013-3-13,74.3,60.0,49.5,45.4,37.9,32.4,75,47,24,30.16,29.99,7,1,7,0.00
2013-3-14,58.9,50.8,42.3,38.4,32.7,26.8,72,50,40,30.29,30.14,9,1,9,0.00
2013-3-15,73.1,53.9,36.4,47.5,38.5,30.3,84,59,31,30.26,30.10,8,1,8,0.00
2013-3-16,83.3,64.0,46.8,54.7,46.4,38.3,82,56,31,30.14,29.97,10,1,10,0.00
2013-3-17,81.0,64.1,46.6,57.6,48.9,38.8,80,60,32,30.10,29.97,10,1,10,0.00
2013-3-18,83.9,69.7,60.7,65.2,59.4,54.6,86,71,47,30.04,29.84,9,1,9,0.00
2013-3-19,84.6,69.8,61.4,62.8,58.6,54.8,84,69,44,30.00,29.87,8,1,8,0.00
2013-3-20,67.7,60.3,51.1,56.2,52.0,45.9,83,74,61,30.00,29.82,7,0,7,0.00
2013-3-21,70.7,55.0,42.8,46.1,36.9,26.7,86,56,23,29.93,29.83,9,1,9,0.00
2013-3-22,66.1,55.8,45.2,48.6,40.8,34.8,75,58,40,30.04,29.90,9,1,9,0.00
2013-3-23,71.3,60.9,53.6,64.6,56.4,46.3,93,85,73,29.98,29.77,6,1,6,0.00
2013-3-24,85.9,71.9,62.3,72.7,65.1,59.9,92,81,52,29.79,29.50,12,3,12,0.00
2013-3-25,68.4,60.7,51.3,61.7,39.3,27.0,83,48,25,30.00,29.58,16,2,16,0.00
2013-3-26,59.8,49.7,40.5,32.4,28.4,24.8,55,44,31,30.22,30.00,12,1,12,0.00
2013-3-27,65.0,49.2,37.1,39.9,32.2,26.6,72,54,31,30.28,30.18,7,1,7,0.00
2013-3-28,67.9,47.5,37.8,40.1,34.8,31.1,79,64,31,30.27,30.20,5,0,5,0.00
2013-3-29,76.0,56.6,40.7,48.1,40.8,34.6,84,60,26,30.31,30.19,9,1,9,0.00
2013-3-30,80.8,61.9,43.9,53.3,45.9,37.8,83,60,28,30.24,30.08,11,2,11,0.00
2013-3-31,85.0,70.3,50.9,58.5,52.3,42.5,80,55,37,30.11,29.93,11,2,11,0.00